Weather History for Montgomery, NY

Change the Weather History Date:

Wednesday, December 5, 2012

  Actual Average (KPOU) Record (KPOU)
Temperature  
Mean Temperature 46 °F 35 °F  
Max Temperature 57 °F 44 °F 66 °F (2001)
Min Temperature 33 °F 26 °F 7 °F (1966)
Degree Days  
Heating Degree Days 20 30  
Month to date heating degree days 147  
Since 1 July heating degree days 1425  
Cooling Degree Days 0 0  
Month to date cooling degree days 0  
Year to date cooling degree days 672  
Moisture  
Dew Point 32 °F    
Average Humidity 62    
Maximum Humidity 97    
Minimum Humidity 43    
Precipitation  
Precipitation 0.01 in 0.13 in 1.43 in (1962)
Month to date precipitation 0.62  
Year to date precipitation 43.62  
Sea Level Pressure  
Sea Level Pressure 30.05 in    
Wind  
Wind Speed 8 mph (NW)    
Max Wind Speed 22 mph    
Max Gust Speed 30 mph    
Visibility 10 miles    
Events      
T = Trace of Precipitation, MM = Missing Value Source: NWS Daily Summary

Daily Weather History Graph

Daily Weather History Graph

Search for Another Location

Airport:

Trip Planner

Search our weather history database for the weather conditions in past years. The results will help you decide how hot, cold, wet, or windy it might be!

Date:

Astronomy

Dec. 05, 2012 Rise Set
Actual Time 7:08 AM EST 4:27 PM EST
Civil Twilight 6:37 AM EST 4:58 PM EST
Nautical Twilight 6:02 AM EST 5:32 PM EST
Astronomical Twilight 5:29 AM EST 6:06 PM EST
Moon 11:17 PM EST (12/5) 11:27 AM EST (12/5)
Length of Visible Light 10h 20m
Length of Day
9h 18m
Waning Gibbous, 60% of the Moon is Illuminated
Dec 5
Waning Gibbous
Dec 6
Last Quarter
Dec 13
New
Dec 20
First Quarter
Dec 28
Full

Hourly Weather History & Observations

Time (EST) Temp. Windchill Dew Point Humidity Pressure Visibility Wind Dir Wind Speed Gust Speed Precip Events Conditions
12:54 AM 43.0 °F - 42.1 °F 97% 29.89 in 4.0 mi Calm Calm - 0.00 in   Overcast
1:54 AM 46.9 °F - 45.0 °F 93% 29.88 in 5.0 mi Calm Calm - N/A   Overcast
2:41 AM 57.2 °F - 51.8 °F 82% 29.90 in 10.0 mi West 11.5 mph 19.6 mph N/A   Overcast
2:54 AM 55.0 °F - 46.0 °F 72% 29.91 in 10.0 mi WNW 17.3 mph 26.5 mph N/A   Overcast
3:54 AM 53.1 °F - 45.0 °F 74% 29.94 in 10.0 mi WNW 5.8 mph - N/A   Overcast
4:54 AM 51.1 °F - 45.0 °F 80% 29.94 in 10.0 mi WNW 4.6 mph - 0.01 in   Overcast
5:54 AM 51.1 °F - 43.0 °F 74% 29.97 in 10.0 mi WNW 5.8 mph 16.1 mph N/A   Overcast
6:54 AM 48.9 °F - 39.9 °F 71% 30.00 in 10.0 mi WNW 5.8 mph - N/A   Mostly Cloudy
7:54 AM 48.0 °F - 37.9 °F 68% 30.01 in 10.0 mi Variable 4.6 mph - N/A   Clear
9:54 AM 50.0 °F - 36.0 °F 59% 30.03 in 10.0 mi WNW 12.7 mph - N/A   Partly Cloudy
10:54 AM 48.0 °F - 35.1 °F 61% 30.03 in 10.0 mi WNW 13.8 mph 18.4 mph N/A   Overcast
11:54 AM 50.0 °F - 32.0 °F 50% 30.03 in 10.0 mi NW 10.4 mph 20.7 mph N/A   Overcast
12:54 PM 50.0 °F - 32.0 °F 50% 30.03 in 10.0 mi WNW 13.8 mph 28.8 mph N/A   Mostly Cloudy
1:54 PM 48.0 °F - 28.0 °F 46% 30.04 in 10.0 mi NW 10.4 mph 25.3 mph N/A   Overcast
2:54 PM 46.0 °F 39.0 °F 28.0 °F 50% 30.06 in 10.0 mi NW 17.3 mph 24.2 mph N/A   Scattered Clouds
3:54 PM 43.0 °F 35.7 °F 23.0 °F 45% 30.10 in 10.0 mi NW 15.0 mph 29.9 mph N/A   Overcast
4:54 PM 39.9 °F 32.9 °F 19.0 °F 43% 30.13 in 10.0 mi WNW 11.5 mph 24.2 mph N/A   Mostly Cloudy
5:54 PM 39.0 °F 32.3 °F 21.0 °F 49% 30.15 in 10.0 mi NW 10.4 mph 20.7 mph N/A   Overcast
6:54 PM 37.0 °F 29.3 °F 21.0 °F 52% 30.17 in 10.0 mi NW 11.5 mph - N/A   Partly Cloudy
7:54 PM 37.0 °F 26.2 °F 18.0 °F 46% 30.18 in 10.0 mi NW 21.9 mph 29.9 mph N/A   Mostly Cloudy
8:54 PM 34.0 °F 27.2 °F 18.0 °F 52% 30.20 in 10.0 mi NW 8.1 mph 20.7 mph N/A   Scattered Clouds
9:54 PM 34.0 °F 25.0 °F 19.0 °F 54% 30.21 in 10.0 mi NNW 12.7 mph 23.0 mph N/A   Clear
10:54 PM 35.1 °F 27.4 °F 19.9 °F 54% 30.24 in 10.0 mi NNW 10.4 mph - N/A   Overcast
11:54 PM 33.1 °F 24.4 °F 18.0 °F 54% 30.25 in 10.0 mi NNW 11.5 mph 18.4 mph N/A   Overcast